Wind_Speed
14 15 15 14 14 15 16 16 15 14 13 12 11 10 10 9 9 7 6 5 5 5 5 4 5 5 5 6 6 6 6 7 7 6 6 6 6 6 6 6 6 6 6 6 5 5 5 4 4
14 14 15 14 16 16 16 17 16 14 14 13 12 10 10 10 9 7 6 5 6 5 5 5 5 5 5 5 7 7 7 7 7 6 6 6 6 6 6 6 6 6 5 5 5 4 4 3 3
13 13 14 15 17 18 17 17 16 15 13 13 12 11 10 10 9 8 7 7 6 5 5 4 4 5 5 6 6 7 7 7 6 6 6 6 6 5 6 6 5 5 5 5 4 4 4 3 3
13 12 13 16 19 19 18 17 16 15 13 12 12 12 11 10 9 8 8 8 7 5 5 5 5 5 6 6 6 7 7 7 6 5 5 5 5 5 6 6 6 5 5 5 4 3 3 3 3
12 14 16 18 19 19 18 16 15 14 13 13 13 12 12 12 11 9 8 8 7 7 6 5 5 5 6 7 7 7 7 7 6 5 5 5 4 4 5 5 5 4 4 4 3 3 3 2 2
14 14 17 18 18 18 17 17 16 14 13 13 13 13 13 12 11 10 9 8 8 7 6 6 6 7 7 7 7 7 7 7 7 6 5 5 4 4 4 4 3 3 3 2 2 2 2 2 1
14 15 16 17 17 17 17 17 16 15 14 13 13 13 14 13 12 11 10 9 9 8 7 8 7 8 8 8 8 8 8 8 7 6 5 5 4 4 4 3 2 2 3 2 2 1 1 0 0
14 15 16 17 17 17 17 17 17 16 15 14 14 14 14 13 12 12 11 10 9 9 8 9 9 9 9 9 8 8 8 8 7 6 5 5 4 3 3 3 2 3 3 2 1 1 1 1 1
15 15 15 16 17 17 18 17 17 17 16 15 15 15 15 14 13 12 12 12 11 10 10 10 10 11 10 10 9 9 8 7 7 6 5 4 4 3 2 2 2 3 3 1 1 1 1 0 1
14 15 15 15 16 17 18 18 17 17 16 16 16 16 15 14 14 14 13 13 13 12 12 12 12 12 12 10 9 9 8 7 7 6 5 5 4 3 3 2 2 2 2 2 2 1 0 0 1
13 13 14 15 16 17 17 17 17 17 16 16 16 16 15 15 15 15 14 14 14 13 12 13 13 12 11 10 9 8 8 7 7 6 5 5 5 4 4 3 2 2 2 2 2 1 0 0 1
12 12 12 14 15 16 17 17 17 16 16 16 16 15 15 16 16 15 14 14 14 13 13 13 13 11 11 10 9 9 8 7 7 6 5 4 4 3 3 4 4 3 2 1 1 2 2 2 2
11 11 11 14 15 16 17 17 17 16 16 16 16 15 15 15 15 15 15 15 14 13 13 13 13 12 11 10 9 8 8 7 6 5 4 4 3 3 3 3 3 2 2 2 2 4 3 3 3
11 11 12 14 15 16 16 16 16 16 16 16 15 15 15 15 15 15 15 14 14 14 13 12 12 12 12 12 10 9 9 8 7 6 5 4 4 4 4 3 3 3 2 2 2 3 3 3 3
12 11 12 13 14 14 15 15 15 15 15 15 15 15 15 15 15 14 14 13 14 14 13 13 13 12 12 11 10 10 8 7 7 6 5 4 4 4 5 4 4 4 4 4 3 4 4 3 3
11 11 11 11 11 12 13 14 14 15 14 14 14 15 15 15 15 14 13 12 13 13 13 13 13 12 11 11 10 9 9 8 7 6 6 6 5 5 6 6 6 5 5 5 5 5 5 4 4
9 9 9 8 9 10 11 13 13 13 13 13 13 14 15 15 15 14 13 12 13 13 13 12 12 11 11 10 10 9 9 8 8 8 8 7 6 6 6 7 7 6 6 6 5 5 5 5 4
7 7 7 6 7 7 8 10 12 12 13 13 13 13 14 14 14 14 13 12 12 12 12 11 11 11 10 10 10 10 9 9 8 8 8 7 6 6 6 6 6 6 5 5 5 5 5 5 4
6 6 6 5 5 5 6 7 9 11 11 12 12 12 12 12 12 12 12 12 12 11 11 10 10 10 9 9 9 9 9 9 9 8 7 7 6 6 6 5 6 6 5 5 5 5 5 5 4
4 4 3 4 4 5 4 5 7 9 9 11 11 11 11 11 12 11 10 9 10 10 10 9 9 9 9 8 8 8 9 8 8 8 8 8 7 7 6 6 6 6 5 5 5 5 5 5 5
4 2 1 1 3 3 3 3 5 6 7 9 10 10 9 9 10 11 10 9 9 9 8 9 9 8 8 8 7 7 7 7 7 8 8 7 7 6 6 6 6 6 6 5 5 5 5 5 5
6 3 3 3 2 1 1 2 4 5 6 7 8 8 8 8 9 9 9 9 8 8 8 7 7 8 8 7 7 6 6 6 6 7 7 6 6 5 5 5 5 5 5 4 4 4 5 5 5
7 6 6 6 5 4 2 2 3 4 4 6 7 7 8 7 7 7 7 7 7 7 7 6 6 7 7 7 6 6 5 4 4 5 6 6 5 5 4 4 4 4 4 4 4 5 5 5 5
9 8 7 8 7 6 4 4 3 2 4 5 6 7 7 7 7 7 5 5 5 5 5 5 5 5 6 6 6 5 5 4 4 5 5 5 5 4 3 3 3 3 4 4 4 5 5 5 6
12 10 9 9 9 8 6 5 3 3 4 4 4 5 6 7 6 6 5 4 4 4 4 4 4 4 4 4 5 5 4 3 3 4 4 5 5 4 3 3 3 3 4 5 5 6 6 6 6
14 13 12 11 10 8 7 6 5 4 3 3 3 4 5 6 6 7 6 5 3 2 3 3 4 4 4 4 4 4 4 3 2 3 4 4 4 4 4 4 4 4 5 5 6 6 7 6 6
17 16 15 13 11 10 9 8 7 6 4 5 4 4 4 5 6 6 6 5 4 3 2 3 4 4 4 4 4 4 4 3 3 3 4 4 4 4 5 5 5 5 5 6 6 7 7 7 7
18 17 17 16 14 13 12 10 9 6 7 6 6 7 6 7 6 6 6 5 4 4 3 3 3 4 5 5 4 4 4 4 3 4 4 4 5 5 5 6 7 6 6 7 7 7 8 8 8
22 20 20 19 18 17 15 12 10 10 10 9 7 8 8 7 7 7 7 7 6 5 5 4 4 5 5 6 5 5 5 5 5 5 5 6 6 6 6 7 7 7 7 8 8 8 9 9 9
24 22 21 21 19 19 17 15 13 12 11 10 9 9 9 9 9 8 8 8 8 8 7 6 6 6 6 7 6 6 6 6 6 7 7 7 7 7 7 7 8 8 9 9 9 10 10 11 12
Wind_Direction
82 79 76 72 60 54 50 49 50 48 46 50 50 51 53 60 62 66 70 74 73 74 76 86 95 102 119 132 131 136 142 142 134 130 134 141 145 142 139 137 139 148 149 146 139 133 132 126 117
80 75 71 66 57 53 52 50 49 47 48 51 52 52 52 55 55 63 66 66 69 77 82 87 96 105 118 126 133 137 141 143 141 132 126 130 136 141 140 141 146 149 150 147 139 133 137 131 121
78 71 65 62 55 49 50 48 47 48 50 50 51 50 48 53 57 60 63 62 64 73 80 90 99 110 119 125 132 139 140 139 136 129 123 126 131 140 143 144 147 149 151 146 137 132 133 132 124
73 64 65 62 57 53 50 49 46 47 48 47 46 44 48 53 58 62 63 58 59 68 80 90 103 116 124 127 128 139 140 135 130 126 119 122 123 133 144 144 147 147 152 143 132 131 130 128 123
71 66 66 61 57 55 50 48 45 44 45 46 47 47 49 55 59 61 65 63 64 69 81 92 105 118 123 126 128 129 136 134 131 125 119 118 118 122 140 146 154 145 143 146 139 136 126 122 121
70 70 66 57 55 56 52 48 45 42 44 46 49 51 55 60 61 59 62 68 68 74 83 92 107 115 121 125 127 125 127 130 131 127 125 122 118 114 115 121 136 148 147 136 138 132 119 112 120
69 66 61 53 50 51 51 47 45 45 47 50 52 55 59 60 57 56 62 68 69 75 87 94 107 113 119 125 125 120 120 122 126 122 117 116 115 112 113 109 130 165 152 125 117 122 132 153 183
70 65 58 52 49 48 50 49 47 48 48 52 56 59 60 59 59 59 62 68 72 77 90 99 108 110 115 123 121 117 117 116 114 112 110 108 108 109 117 117 126 159 149 122 132 186 213 254 277
71 65 59 51 50 49 52 53 50 51 50 53 56 58 58 57 60 61 64 69 73 80 88 97 104 107 110 117 115 113 112 114 111 109 109 107 109 108 113 118 135 150 146 138 152 171 205 246 301
67 59 55 53 53 52 53 53 52 52 54 55 56 54 54 58 60 62 67 69 74 82 88 96 100 102 101 106 109 108 107 109 109 109 105 101 106 104 106 122 141 146 150 165 172 185 141 297 342
66 64 57 54 55 54 54 53 52 53 55 58 57 54 56 61 64 65 69 73 76 80 86 93 96 102 102 102 104 105 105 106 107 107 99 94 94 102 120 136 135 133 135 150 163 136 84 27 33
64 62 62 61 59 55 55 53 52 56 57 58 58 57 58 61 64 66 70 73 78 81 85 88 89 95 99 100 101 103 103 102 103 103 97 91 90 100 131 124 112 114 118 126 75 37 30 46 55
72 69 69 64 60 56 55 54 52 55 56 56 57 58 61 64 66 67 69 70 75 80 85 90 90 89 89 90 89 91 97 94 93 91 91 91 98 101 100 118 116 104 75 53 41 32 38 39 50
82 81 79 69 64 59 54 52 50 51 55 55 56 58 62 64 66 67 68 70 73 78 81 85 89 88 87 84 81 83 86 82 77 69 68 78 82 92 92 96 89 89 72 60 59 46 41 42 52
92 85 80 74 67 63 57 54 50 49 52 53 54 57 61 61 63 64 66 69 73 76 78 81 83 83 83 83 83 82 81 78 74 67 65 67 72 91 95 87 83 83 84 80 74 66 67 69 63
104 94 83 75 65 58 52 51 49 48 48 50 53 57 59 61 62 62 63 67 72 74 76 78 78 78 79 78 75 72 70 69 73 72 73 73 73 79 85 89 84 78 80 83 80 72 73 69 65
104 100 89 72 62 55 45 44 46 48 47 50 53 57 57 58 59 60 61 64 70 73 73 75 76 75 75 72 68 67 68 69 73 75 78 76 75 77 81 90 85 78 75 78 77 74 67 61 62
110 111 97 62 44 41 40 42 48 46 45 49 52 57 56 57 58 59 62 65 68 71 70 70 71 70 70 69 66 63 62 64 70 70 71 72 73 77 79 83 82 73 69 68 67 64 61 56 58
131 116 104 90 50 22 25 30 37 37 46 48 48 53 53 52 56 57 60 63 68 68 66 65 64 64 64 65 63 61 59 61 65 66 68 68 70 70 68 67 69 68 67 63 58 56 51 49 44
149 116 94 110 50 5 1 19 32 38 47 48 48 51 51 48 51 54 58 62 65 66 65 62 60 59 60 62 63 61 59 63 66 63 59 60 63 65 66 63 66 68 67 62 58 55 47 41 37
188 146 128 92 34 360 357 35 32 39 42 43 44 45 49 50 49 49 50 57 61 62 63 64 63 63 61 63 62 61 62 64 63 58 53 52 57 65 68 63 64 68 63 59 57 49 38 32 26
193 210 223 215 232 260 339 34 27 29 37 39 37 37 39 49 52 49 46 50 57 60 59 58 61 63 61 59 55 53 56 58 57 50 46 47 50 58 60 58 64 61 55 51 45 35 26 21 16
199 211 225 230 224 221 231 270 345 9 27 27 25 28 33 43 48 42 40 47 50 53 53 51 55 52 52 50 48 48 49 52 53 47 44 43 41 48 53 50 61 56 40 31 25 18 17 14 10
209 217 222 230 220 220 239 271 311 331 358 4 8 17 21 27 28 25 25 38 46 47 50 53 44 38 41 38 43 42 41 45 49 48 43 33 28 32 42 48 47 33 19 13 7 3 2 3 2
213 216 221 226 217 226 239 261 291 308 335 351 2 9 6 10 7 7 5 6 28 41 45 44 34 28 25 25 26 29 33 38 45 41 34 26 21 20 20 22 15 3 358 358 357 355 352 351 352
214 221 227 231 232 239 234 252 272 276 305 319 338 348 352 354 352 347 342 343 353 11 19 20 22 15 15 15 10 17 20 21 27 27 17 9 5 1 355 348 345 346 343 343 344 345 341 336 337
215 220 231 238 238 242 240 250 254 253 259 287 309 319 322 331 338 331 326 326 332 329 335 353 4 4 359 356 355 358 1 4 2 3 357 354 348 341 336 329 324 324 327 329 334 338 338 332 325
223 224 231 236 240 242 246 255 258 260 260 266 285 298 308 314 312 313 318 314 314 315 318 323 335 341 342 343 339 333 334 332 332 338 340 347 345 333 325 321 323 319 319 320 322 327 331 332 327
223 226 231 235 240 242 246 253 259 259 263 263 265 276 290 301 303 303 307 306 303 300 299 293 311 315 318 323 321 314 310 309 311 314 321 329 331 326 319 315 315 312 315 314 314 316 319 321 321
224 228 231 235 239 242 246 252 255 257 257 261 266 269 280 287 287 289 293 293 293 297 296 291 298 302 305 310 311 308 300 296 295 300 305 313 316 318 318 311 309 310 310 310 310 312 312 311 310
Height
5892 5891 5891 5891 5891 5889 5888 5887 5886 5886 5885 5884 5883 5882 5881 5881 5881 5883 5880 5879 5879 5879 5879 5879 5879 5879 5880 5880 5881 5882 5883 5884 5884 5885 5886 5887 5887 5888 5889 5890 5890 5891 5891 5891 5892 5892 5892 5892 5892
5894 5894 5894 5893 5892 5890 5890 5889 5888 5887 5887 5885 5884 5884 5883 5882 5881 5880 5879 5879 5879 5879 5879 5879 5880 5880 5881 5881 5882 5883 5884 5885 5886 5886 5887 5887 5888 5889 5890 5890 5891 5892 5892 5892 5892 5892 5893 5893 5892
5896 5895 5896 5894 5892 5892 5891 5890 5890 5889 5888 5887 5886 5885 5884 5883 5882 5881 5880 5879 5879 5879 5879 5880 5880 5881 5881 5882 5883 5884 5885 5886 5887 5887 5888 5889 5889 5889 5890 5891 5892 5892 5892 5893 5893 5893 5893 5893 5892
5898 5897 5897 5896 5894 5894 5893 5893 5892 5891 5890 5889 5888 5886 5885 5884 5883 5882 5881 5880 5879 5879 5880 5880 5880 5881 5882 5883 5884 5885 5886 5887 5888 5889 5889 5890 5890 5890 5891 5891 5892 5893 5893 5893 5893 5893 5893 5893 5893
5901 5900 5898 5897 5896 5896 5895 5895 5894 5893 5892 5890 5889 5888 5886 5885 5883 5883 5882 5881 5880 5880 5880 5880 5881 5882 5883 5883 5884 5886 5886 5888 5889 5889 5890 5890 5891 5891 5891 5892 5893 5893 5893 5894 5894 5894 5894 5893 5893
5904 5902 5901 5899 5899 5899 5898 5897 5896 5895 5893 5892 5891 5889 5887 5886 5885 5884 5883 5882 5881 5880 5880 5880 5880 5882 5883 5884 5885 5886 5887 5888 5889 5890 5891 5891 5891 5892 5892 5892 5893 5893 5894 5894 5894 5894 5894 5894 5893
5906 5904 5902 5902 5901 5900 5900 5899 5898 5896 5894 5893 5892 5891 5889 5887 5886 5884 5883 5882 5882 5881 5880 5880 5881 5882 5884 5885 5886 5888 5888 5889 5890 5890 5891 5892 5892 5892 5893 5893 5893 5893 5894 5894 5894 5894 5894 5894 5893
5906 5906 5904 5904 5903 5902 5902 5901 5900 5898 5896 5895 5893 5892 5891 5889 5888 5886 5885 5884 5883 5882 5881 5882 5882 5883 5885 5886 5888 5889 5889 5890 5891 5891 5892 5892 5892 5893 5893 5893 5893 5894 5894 5894 5894 5894 5893 5893 5893
5908 5908 5906 5906 5905 5905 5904 5903 5902 5900 5898 5896 5895 5894 5893 5891 5889 5888 5887 5886 5884 5883 5883 5883 5884 5885 5886 5887 5889 5890 5890 5891 5892 5892 5893 5893 5893 5893 5893 5893 5894 5894 5894 5894 5894 5893 5893 5892 5892
5909 5909 5908 5908 5908 5906 5906 5905 5904 5902 5900 5899 5897 5895 5894 5893 5891 5890 5889 5888 5887 5886 5885 5885 5886 5887 5888 5889 5890 5891 5892 5892 5893 5893 5893 5894 5894 5894 5893 5894 5894 5894 5894 5894 5893 5893 5893 5892 5891
5910 5910 5910 5909 5909 5909 5908 5907 5906 5904 5902 5901 5899 5898 5896 5895 5894 5893 5891 5891 5890 5889 5888 5888 5889 5890 5891 5891 5892 5892 5893 5893 5894 5894 5894 5895 5895 5895 5894 5894 5894 5894 5894 5893 5893 5893 5892 5891 5891
5913 5912 5912 5911 5911 5911 5911 5909 5908 5907 5905 5903 5902 5900 5899 5897 5896 5895 5894 5893 5893 5892 5892 5892 5892 5892 5893 5893 5894 5894 5894 5895 5895 5895 5895 5895 5895 5895 5895 5895 5894 5894 5894 5893 5893 5892 5891 5891 5890
5914 5914 5914 5913 5913 5913 5913 5912 5910 5909 5907 5905 5904 5903 5901 5900 5899 5898 5897 5896 5895 5895 5894 5894 5895 5895 5895 5895 5895 5895 5896 5896 5896 5896 5896 5896 5896 5896 5896 5895 5895 5895 5894 5894 5893 5892 5892 5891 5890
5916 5915 5915 5915 5915 5915 5915 5914 5913 5911 5909 5908 5906 5905 5904 5902 5901 5900 5900 5899 5898 5897 5897 5897 5897 5897 5897 5897 5897 5897 5897 5897 5897 5897 5897 5897 5896 5896 5896 5896 5896 5895 5895 5894 5894 5893 5892 5891 5891
5918 5918 5918 5917 5917 5917 5917 5916 5915 5913 5911 5910 5909 5907 5906 5905 5904 5903 5902 5901 5900 5900 5899 5899 5899 5899 5899 5899 5899 5899 5899 5899 5899 5898 5898 5897 5897 5897 5896 5897 5896 5896 5895 5894 5894 5893 5893 5892 5891
5919 5919 5919 5919 5918 5918 5920 5918 5917 5915 5913 5912 5911 5910 5909 5907 5906 5905 5904 5903 5903 5902 5902 5901 5901 5901 5901 5901 5901 5900 5900 5900 5900 5899 5899 5898 5898 5898 5897 5897 5897 5896 5896 5895 5894 5894 5893 5893 5892
5920 5920 5920 5920 5919 5919 5921 5920 5918 5917 5916 5915 5913 5912 5911 5910 5909 5907 5906 5905 5904 5904 5904 5903 5903 5903 5903 5902 5902 5902 5901 5901 5901 5900 5900 5899 5899 5899 5898 5898 5898 5897 5897 5896 5895 5894 5894 5893 5892
5920 5920 5920 5921 5920 5920 5921 5921 5920 5918 5918 5916 5915 5914 5913 5912 5911 5909 5908 5907 5907 5906 5906 5905 5905 5905 5904 5904 5903 5903 5903 5902 5902 5901 5901 5900 5900 5899 5899 5899 5898 5898 5897 5896 5896 5895 5894 5894 5893
5921 5921 5920 5921 5921 5921 5921 5922 5921 5920 5919 5918 5917 5915 5915 5914 5913 5912 5910 5910 5909 5908 5908 5907 5907 5906 5905 5905 5905 5904 5904 5903 5903 5902 5902 5901 5901 5900 5900 5899 5899 5898 5897 5897 5896 5896 5895 5894 5893
5921 5921 5921 5921 5921 5921 5921 5922 5922 5921 5920 5919 5918 5917 5917 5916 5915 5913 5912 5912 5911 5910 5909 5909 5908 5907 5907 5906 5906 5905 5905 5904 5904 5903 5903 5902 5901 5901 5900 5900 5899 5898 5898 5897 5897 5896 5895 5894 5893
5919 5920 5921 5921 5921 5921 5921 5922 5921 5921 5921 5920 5919 5918 5918 5917 5916 5915 5914 5913 5912 5912 5911 5910 5909 5909 5908 5907 5907 5907 5906 5906 5905 5904 5904 5903 5902 5901 5901 5900 5900 5899 5899 5898 5897 5897 5896 5895 5893
5918 5919 5920 5921 5922 5921 5922 5922 5921 5921 5921 5920 5920 5919 5918 5918 5917 5916 5915 5914 5914 5913 5912 5911 5910 5910 5909 5909 5908 5908 5907 5906 5906 5905 5904 5903 5903 5902 5901 5901 5900 5899 5899 5898 5898 5897 5896 5895 5893
5917 5918 5919 5920 5921 5921 5921 5921 5922 5920 5920 5920 5920 5919 5918 5918 5917 5916 5916 5915 5915 5914 5913 5912 5911 5911 5910 5910 5909 5908 5907 5907 5906 5905 5905 5904 5903 5902 5901 5901 5900 5900 5899 5899 5898 5897 5895 5894 5893
5915 5917 5918 5919 5919 5920 5921 5920 5920 5920 5920 5920 5919 5919 5918 5918 5918 5917 5916 5916 5916 5915 5914 5913 5912 5912 5911 5910 5909 5909 5908 5907 5907 5906 5905 5904 5904 5903 5902 5901 5901 5900 5899 5898 5898 5896 5895 5894 5892
5913 5915 5917 5917 5917 5918 5919 5918 5920 5919 5919 5919 5918 5918 5918 5918 5917 5917 5916 5916 5916 5915 5914 5914 5913 5912 5911 5911 5910 5909 5908 5907 5907 5906 5905 5904 5904 5903 5902 5901 5900 5899 5899 5898 5897 5896 5894 5893 5891
5910 5913 5915 5915 5916 5916 5916 5916 5918 5918 5917 5918 5918 5918 5917 5917 5917 5916 5916 5916 5915 5915 5914 5914 5913 5912 5911 5910 5910 5909 5908 5908 5907 5906 5905 5904 5904 5903 5902 5901 5900 5899 5898 5897 5896 5895 5893 5892 5890
5907 5909 5912 5913 5913 5913 5914 5915 5916 5916 5916 5916 5917 5917 5916 5916 5916 5916 5915 5915 5914 5914 5914 5913 5912 5911 5911 5910 5909 5908 5907 5907 5906 5906 5905 5904 5903 5902 5901 5900 5899 5898 5897 5896 5895 5893 5892 5890 5889
5904 5906 5908 5909 5910 5910 5912 5913 5914 5914 5914 5915 5915 5915 5915 5915 5914 5914 5914 5914 5913 5913 5913 5912 5911 5910 5910 5909 5908 5907 5906 5906 5905 5905 5904 5903 5902 5901 5900 5899 5898 5897 5896 5894 5893 5892 5890 5889 5887
5900 5902 5904 5905 5907 5907 5908 5912 5912 5912 5912 5913 5913 5913 5913 5913 5913 5913 5913 5912 5912 5911 5911 5911 5910 5910 5909 5908 5907 5906 5905 5904 5904 5903 5902 5902 5900 5899 5898 5897 5896 5895 5894 5892 5891 5890 5888 5886 5885
5895 5898 5900 5901 5903 5904 5905 5909 5908 5908 5909 5909 5910 5910 5911 5911 5911 5911 5910 5910 5910 5910 5909 5909 5909 5908 5907 5906 5905 5904 5904 5903 5902 5901 5901 5900 5899 5897 5896 5895 5894 5893 5892 5890 5889 5887 5885 5884 5882